Ann Arbor, MI

5:50 PM EDT on March 28, 2017 (GMT -0400)
Ann Arbor Municipal

Weather History for KARB - October, 2011

Change the Weather History Date:

Thursday, October 27, 2011

  Actual Average Record
Temperature  
Mean Temperature 41 °F -  
Max Temperature 51 °F 56 °F 75 °F (2000)
Min Temperature 34 °F 35 °F 21 °F (2005)
Degree Days  
Heating Degree Days 24    
Moisture  
Dew Point 36 °F    
Average Humidity 79    
Maximum Humidity 96    
Minimum Humidity 54    
Precipitation  
Precipitation 0.00 in - - ()
Sea Level Pressure  
Sea Level Pressure 29.96 in    
Wind  
Wind Speed 8 mph (NNW)    
Max Wind Speed 13 mph    
Max Gust Speed 17 mph    
Visibility 10 miles    
Events Rain    
Averages and records for this station are not official NWS values.
T = Trace of Precipitation, MM = Missing Value Source: NWS Daily Summary

Daily Weather History Graph

Daily Weather History Graph

Search for Another Location

Airport or City:

Trip Planner

Search our weather history database for the weather conditions in past years. The results will help you decide how hot, cold, wet, or windy it might be!

Date:

Astronomy

Oct. 27, 2011 Rise Set
Actual Time 8:01 AM EDT 6:35 PM EDT
Civil Twilight 7:32 AM EDT 7:04 PM EDT
Nautical Twilight 6:59 AM EDT 7:37 PM EDT
Astronomical Twilight 6:27 AM EDT 8:09 PM EDT
Moon 9:05 AM EDT (10/27) 7:01 PM EDT (10/27)
Length of Visible Light 11h 31m
Length of Day
10h 33m
New Moon, 1% of the Moon is Illuminated
Oct 27
New Moon
Nov 2
First Quarter
Nov 10
Full
Nov 18
Last Quarter
Nov 25
New

Hourly Weather History & Observations

Time (EDT) Temp. Windchill Dew Point Humidity Pressure Visibility Wind Dir Wind Speed Gust Speed Precip Events Conditions
12:39 AM 44.6 °F 39.2 °F 41.0 °F 87% 29.88 in 10.0 mi North 10.4 mph - N/A   Overcast
12:53 AM 45.0 °F 41.2 °F 41.0 °F 86% 29.88 in 10.0 mi North 6.9 mph - N/A   Overcast
1:53 AM 44.1 °F 38.1 °F 41.0 °F 89% 29.88 in 10.0 mi NNE 11.5 mph - N/A   Overcast
2:53 AM 44.1 °F 39.5 °F 39.9 °F 85% 29.89 in 10.0 mi NNE 8.1 mph - N/A   Overcast
3:45 AM 44.6 °F 39.7 °F 39.2 °F 81% 29.87 in 10.0 mi NNE 9.2 mph - N/A   Mostly Cloudy
4:53 AM 43.0 °F 38.8 °F 39.0 °F 86% 29.86 in 10.0 mi NNE 6.9 mph - N/A   Overcast
5:53 AM 43.0 °F 38.2 °F 37.9 °F 82% 29.89 in 10.0 mi North 8.1 mph - N/A   Overcast
6:53 AM 43.0 °F 38.8 °F 37.0 °F 80% 29.89 in 10.0 mi North 6.9 mph - N/A   Overcast
7:53 AM 42.1 °F 38.4 °F 37.0 °F 82% 29.90 in 10.0 mi NNW 5.8 mph - N/A   Overcast
8:53 AM 42.1 °F 37.1 °F 37.0 °F 82% 29.91 in 10.0 mi North 8.1 mph - 0.00 in   Overcast
9:53 AM 42.1 °F 38.4 °F 37.9 °F 85% 29.93 in 10.0 mi NNW 5.8 mph - 0.00 in   Overcast
10:53 AM 43.0 °F 37.7 °F 37.9 °F 82% 29.93 in 10.0 mi NNW 9.2 mph - N/A   Overcast
11:53 AM 44.1 °F 38.1 °F 37.0 °F 76% 29.94 in 10.0 mi North 11.5 mph - N/A   Overcast
12:48 PM 44.6 °F 39.2 °F 37.4 °F 76% 29.94 in 10.0 mi NW 10.4 mph - N/A   Overcast
12:53 PM 45.0 °F 38.9 °F 36.0 °F 71% 29.96 in 10.0 mi NW 12.7 mph 17.3 mph N/A   Overcast
1:17 PM 44.6 °F 38.8 °F 37.4 °F 76% 29.94 in 10.0 mi NNW 11.5 mph - N/A   Overcast
1:31 PM 44.6 °F 38.8 °F 37.4 °F 76% 29.93 in 10.0 mi North 11.5 mph - 0.00 in Rain Light Rain
1:50 PM 44.6 °F 39.2 °F 37.4 °F 76% 29.94 in 10.0 mi NNW 10.4 mph - 0.00 in   Overcast
1:53 PM 46.0 °F 40.6 °F 37.9 °F 73% 29.95 in 10.0 mi NNW 11.5 mph - 0.00 in   Mostly Cloudy
2:53 PM 46.9 °F - 35.1 °F 63% 29.95 in 10.0 mi NNW 10.4 mph - N/A   Mostly Cloudy
3:53 PM 46.9 °F - 34.0 °F 61% 29.97 in 10.0 mi NW 12.7 mph - N/A   Mostly Cloudy
4:53 PM 48.0 °F - 32.0 °F 54% 29.99 in 10.0 mi NW 6.9 mph - N/A   Scattered Clouds
5:53 PM 46.0 °F 41.9 °F 32.0 °F 58% 30.01 in 10.0 mi NW 8.1 mph - N/A   Mostly Cloudy
6:53 PM 43.0 °F 41.3 °F 30.9 °F 62% 30.04 in 10.0 mi NNW 3.5 mph - N/A   Clear
8:53 PM 34.0 °F - 32.0 °F 92% 30.12 in 10.0 mi Calm Calm - N/A   Mostly Cloudy
9:53 PM 34.0 °F - 32.0 °F 92% 30.13 in 10.0 mi Calm Calm - N/A   Clear
10:53 PM 35.1 °F - 33.1 °F 92% 30.14 in 10.0 mi Calm Calm - N/A   Overcast
11:53 PM 34.0 °F - 33.1 °F 96% 30.14 in 10.0 mi Calm Calm - N/A   Overcast